Temp
41 43 45 46 46 46 45 46 48 48 47 47 47 46 45 43 44 45 45 43 44 45 45 45 45 45 44 41 40 39 39 39 39 41 42 43 42 42 42 42 41 41 41 42 42 42 42 41 41 42 42 42 41 41 41 41 40 40 39 39 39 39 39 38 38 38 38 37 38
40 42 43 46 48 47 46 46 47 48 48 47 46 45 44 43 44 45 45 43 45 45 45 46 44 42 41 40 39 39 38 38 38 39 40 41 41 41 41 41 41 41 41 41 41 42 42 41 41 41 41 42 41 41 41 42 41 40 39 38 39 39 39 38 38 38 38 38 38
39 40 40 41 43 44 45 45 46 46 45 45 44 43 42 42 44 45 46 45 44 43 42 45 43 42 40 40 39 38 38 38 38 38 39 40 40 40 41 41 40 41 41 42 41 42 42 41 41 42 42 42 41 41 41 41 41 40 39 38 39 39 39 39 39 39 39 39 38
36 36 37 38 39 41 43 45 45 44 43 44 42 40 40 42 44 44 44 41 41 41 42 44 44 43 42 41 39 38 37 39 38 38 38 39 39 39 39 39 39 40 40 41 41 41 41 41 41 42 42 41 40 40 41 41 41 40 40 39 39 39 39 39 39 39 39 39 38
35 35 37 39 39 40 41 41 41 42 42 41 40 40 40 40 42 41 40 40 42 44 44 42 42 43 42 40 38 36 36 36 39 40 39 39 39 39 39 38 39 39 40 40 40 40 40 39 41 41 42 41 41 41 41 41 40 40 40 40 40 40 39 39 39 39 39 39 39
36 35 35 36 35 37 38 37 37 38 39 38 38 38 39 39 39 39 40 42 43 42 40 39 41 42 42 38 37 36 36 35 37 38 38 38 39 39 38 38 38 39 40 40 40 39 39 39 40 41 41 41 41 41 41 40 40 39 39 40 40 40 39 39 39 39 39 39 38
36 35 35 34 33 34 35 34 34 34 34 34 34 36 38 39 37 36 37 39 39 39 39 40 40 41 40 37 37 37 37 37 37 36 36 38 38 39 39 39 38 38 39 40 39 39 39 39 40 41 42 42 42 41 40 40 40 39 39 39 40 40 39 38 39 39 38 37 37
33 34 34 34 33 32 31 32 32 32 33 33 34 35 35 36 35 35 35 35 36 37 38 39 37 37 36 36 37 37 37 36 37 37 36 38 37 38 38 38 38 38 39 39 39 39 39 39 40 40 41 41 41 41 40 39 38 38 38 39 39 40 39 38 38 38 38 37 36
35 35 34 33 32 31 30 30 30 30 31 32 34 34 34 34 34 34 34 35 37 37 36 36 36 35 34 34 35 36 37 38 38 38 38 37 37 38 38 38 38 39 39 40 39 39 38 39 40 41 41 41 41 41 40 38 37 37 37 38 39 39 39 39 38 37 37 36 35
37 36 35 34 33 32 30 29 28 29 30 31 32 33 34 36 36 35 35 37 37 36 35 35 35 34 33 33 34 36 37 37 38 38 38 38 39 39 39 39 39 39 40 41 40 39 38 39 39 40 40 41 40 39 39 38 37 36 37 38 38 38 38 38 37 37 36 36 35
37 36 35 35 34 33 32 30 30 30 31 32 33 33 34 35 35 35 35 35 34 34 34 35 34 34 34 35 36 37 37 38 39 39 38 39 39 39 39 39 39 39 40 41 41 40 39 39 39 39 39 40 39 39 38 37 36 36 36 37 37 37 36 37 37 37 36 36 35
36 36 35 34 33 32 31 31 32 32 33 33 34 34 34 34 34 34 34 33 33 34 35 34 34 34 35 37 37 38 39 38 38 38 38 38 39 39 38 38 38 38 39 40 40 40 40 39 39 38 38 38 39 39 38 37 36 36 36 36 36 36 36 36 36 36 36 36 35
35 35 35 35 33 32 31 32 33 33 33 34 35 35 36 36 35 34 34 33 34 36 37 36 35 35 35 37 38 39 39 39 38 38 39 39 39 39 38 38 37 38 38 39 39 40 39 39 38 37 37 37 38 39 38 37 36 36 35 35 35 35 35 35 35 35 35 35 35
35 34 34 34 33 32 32 33 34 34 35 35 36 37 37 37 37 36 35 35 36 37 38 37 37 38 38 38 39 39 39 39 39 39 39 39 39 39 38 38 37 37 38 39 39 38 38 37 37 37 37 37 37 38 38 37 36 36 36 35 35 35 35 35 35 35 34 34 34
35 35 34 34 33 33 33 33 35 36 36 36 37 38 38 39 39 38 37 36 36 37 37 37 39 40 40 39 39 39 39 39 39 39 39 39 39 39 38 38 37 37 37 38 38 37 37 36 36 36 36 36 36 37 37 37 36 36 36 35 35 35 35 35 35 34 34 34 33
35 35 35 34 34 34 34 35 37 37 37 38 39 39 39 40 40 39 38 37 38 39 39 39 40 41 41 41 40 39 39 39 39 39 39 39 39 39 38 37 37 36 36 37 37 37 37 36 36 36 36 36 36 36 36 36 36 36 36 35 35 35 35 35 35 34 34 34 34
36 35 35 35 35 35 35 36 38 38 39 39 39 39 39 40 40 40 40 41 41 41 41 40 41 42 42 43 42 41 40 40 40 40 40 40 39 39 38 38 37 36 36 36 36 36 37 37 37 37 36 36 36 36 36 36 35 35 35 35 35 35 35 35 35 35 34 34 34
36 36 36 35 35 36 36 36 37 38 38 38 39 39 40 40 40 40 41 41 41 40 40 40 41 41 41 41 42 42 41 41 41 41 41 40 39 39 38 38 37 36 36 35 36 36 36 36 36 36 36 36 35 35 35 35 35 35 35 35 35 35 35 35 35 35 35 35 35
36 36 36 36 36 36 37 37 38 38 38 39 39 39 39 39 39 39 40 40 40 40 40 40 41 41 41 41 41 42 42 42 41 40 40 40 39 38 38 37 37 36 36 35 35 35 35 35 36 36 36 36 35 35 35 35 35 35 35 35 34 34 34 34 34 34 35 35 35
36 37 37 37 37 37 37 38 38 38 38 39 39 38 38 38 38 38 39 39 40 40 40 40 40 40 40 40 40 41 41 42 41 40 40 39 39 38 37 37 36 36 35 35 35 35 35 35 35 35 35 35 35 35 35 35 35 35 34 34 34 34 34 34 34 34 35 35 35
37 37 38 38 37 37 37 38 38 37 37 38 37 37 38 38 38 38 39 40 40 40 40 39 40 40 40 40 40 40 40 42 41 40 39 39 38 37 37 37 36 35 35 35 35 35 35 35 35 35 35 35 35 35 35 35 34 34 34 34 34 34 34 34 34 35 35 35 35
37 37 37 38 37 37 37 38 37 37 37 37 37 38 38 38 39 39 39 40 40 40 40 40 40 40 39 39 39 39 40 41 41 40 40 39 38 38 37 37 36 35 35 35 35 35 35 35 35 35 35 35 34 34 34 35 34 34 34 34 34 34 34 34 35 35 35 35 35
38 38 37 38 37 37 38 38 37 37 37 37 38 38 38 39 39 39 40 40 40 40 40 40 40 40 39 39 39 39 39 39 39 39 39 39 38 38 37 37 36 35 35 35 35 35 35 34 34 34 34 34 34 34 34 34 34 34 34 34 34 34 34 34 35 35 35 35 35
38 38 39 39 37 37 37 37 37 37 37 38 38 38 39 39 39 39 39 39 39 39 39 40 40 40 39 39 38 38 37 37 37 38 38 38 38 37 37 36 36 35 35 35 36 36 37 36 35 35 35 34 34 34 34 34 34 34 34 33 33 33 33 34 34 34 34 35 35
38 38 38 38 37 37 37 37 37 37 38 38 39 39 39 39 39 39 39 39 39 39 39 39 39 39 39 39 38 38 37 37 37 37 37 38 38 38 37 37 37 36 36 36 39 42 43 42 40 38 37 36 35 35 35 35 34 34 34 34 34 34 34 34 33 34 34 34 34
38 37 37 37 37 37 37 37 37 37 38 38 38 39 39 39 39 39 39 39 39 39 39 38 38 39 40 40 39 38 38 38 38 37 37 37 37 37 37 38 38 36 36 38 41 44 45 46 46 44 42 39 38 37 37 36 35 35 35 35 35 34 34 34 34 34 34 34 34
37 37 37 37 37 37 37 37 38 38 38 38 38 38 39 39 39 39 38 38 38 38 38 38 38 39 41 40 39 38 37 38 38 37 37 37 37 37 37 38 38 37 37 40 43 45 46 47 47 47 46 43 41 40 39 39 37 37 37 36 36 35 35 34 34 34 34 34 34
36 37 37 37 36 37 37 38 38 38 38 38 38 38 39 39 38 38 38 38 38 38 38 38 39 40 40 40 39 38 37 37 38 38 37 37 37 37 37 38 38 38 39 42 45 46 47 47 48 48 47 46 42 40 38 39 39 39 39 38 38 37 36 35 35 35 35 35 35
35 36 36 36 36 37 37 37 37 38 38 38 38 38 38 38 38 37 37 37 37 37 38 39 40 40 40 39 39 38 38 37 38 38 38 37 37 37 37 38 38 39 42 45 46 46 47 47 47 48 48 47 45 43 41 40 40 40 41 41 40 39 38 37 36 36 35 35 35
35 35 35 36 36 36 37 37 37 38 38 39 38 38 37 37 37 37 37 37 37 37 38 39 39 39 38 38 38 38 38 38 38 38 37 36 37 37 38 39 38 39 41 44 45 46 46 47 47 48 48 48 46 43 41 41 41 41 41 41 41 41 40 39 38 37 36 36 35
34 35 35 35 35 36 36 37 37 37 38 38 37 37 37 36 36 36 36 36 37 38 39 39 38 37 37 37 38 38 37 38 38 37 37 36 37 38 38 38 38 38 40 44 45 46 46 47 47 48 48 48 46 44 41 41 41 41 41 41 41 41 41 40 39 38 37 36 36
34 34 34 35 35 35 36 37 37 37 37 37 37 36 36 36 36 36 36 37 37 37 37 37 36 36 36 37 37 37 37 37 37 37 37 37 37 37 37 38 38 39 41 44 45 46 47 47 47 48 48 48 47 44 41 41 41 41 41 41 41 41 41 41 40 39 38 37 36
33 33 33 34 34 35 36 36 37 37 37 37 36 36 36 36 36 36 36 36 37 37 36 36 36 36 36 36 36 36 36 37 37 37 38 38 37 37 37 38 39 40 42 45 46 46 47 47 47 48 48 48 46 44 42 42 41 41 41 41 41 41 41 41 41 40 40 38 37
32 33 33 33 34 35 36 36 36 36 36 36 36 36 35 35 35 35 36 36 37 37 37 37 36 36 36 36 36 36 36 37 37 37 37 37 37 37 37 38 39 41 43 45 46 46 47 47 47 47 47 48 45 43 42 42 42 41 41 41 41 41 41 40 40 40 40 40 39
32 32 33 34 35 35 36 36 36 36 36 35 35 35 35 35 35 35 35 37 37 37 37 36 36 36 36 36 36 36 36 36 36 37 37 37 37 37 37 38 39 41 44 45 46 46 47 47 47 47 47 46 44 43 42 41 41 41 41 41 41 40 40 39 39 40 40 40 40
32 33 33 34 35 35 36 36 36 36 35 35 35 35 35 35 35 35 36 37 37 36 36 36 36 36 35 35 35 36 36 36 36 36 37 37 37 37 38 38 38 40 43 45 46 46 46 47 47 47 46 45 43 42 41 41 41 40 40 40 40 40 40 39 39 39 39 40 40
33 34 34 34 35 35 35 35 35 35 35 35 34 34 34 34 35 35 36 37 36 35 35 35 35 35 35 35 35 36 36 36 37 37 37 38 38 38 38 39 39 40 42 44 45 46 46 46 46 46 46 44 42 41 41 41 40 40 40 40 40 40 40 39 39 39 39 39 39
34 34 34 34 35 35 35 35 35 34 34 34 34 34 34 34 35 35 36 37 36 35 35 35 35 35 35 35 36 36 36 37 37 38 38 38 39 39 39 39 39 40 42 44 45 45 46 46 46 46 45 43 42 41 40 40 40 40 39 39 39 39 39 39 40 40 39 39 40
35 35 34 34 34 34 34 34 34 34 34 34 34 34 35 35 35 36 37 37 36 35 35 35 35 35 35 36 36 37 37 37 38 39 39 39 40 40 41 40 40 40 42 44 45 45 45 46 46 46 45 43 42 41 40 40 39 39 39 39 39 39 39 39 39 39 39 39 41
35 35 34 34 34 34 34 34 34 34 34 34 34 34 35 35 36 37 37 37 36 35 35 35 35 35 36 37 37 37 37 37 39 39 40 40 41 41 42 41 40 40 41 43 44 44 45 45 45 46 45 43 41 41 40 40 39 39 39 38 38 38 38 38 39 39 39 39 40
35 34 34 34 34 34 34 34 34 34 34 34 34 35 36 37 37 37 37 36 36 36 35 35 35 36 36 38 38 38 38 38 39 40 40 41 41 42 42 41 40 40 40 42 43 44 44 45 45 45 45 43 42 41 40 40 39 38 38 38 38 38 38 38 38 38 39 38 38
MSLP
1019.73 1019.61 1019.53 1019.41 1019.41 1019.37 1019.29 1019.17 1019.05 1018.97 1018.89 1018.85 1018.77 1018.61 1018.49 1018.53 1018.49 1018.37 1018.25 1018.21 1018.17 1018.05 1017.89 1017.77 1017.65 1017.53 1017.41 1017.37 1017.41 1017.45 1017.49 1017.49 1017.53 1017.49 1017.49 1017.49 1017.45 1017.41 1017.41 1017.41 1017.49 1017.53 1017.57 1017.53 1017.53 1017.57 1017.65 1017.73 1017.85 1017.89 1017.89 1017.85 1017.85 1017.85 1017.85 1017.81 1017.85 1017.89 1017.93 1017.93 1017.85 1017.85 1017.85 1017.97 1017.89 1017.85 1017.85 1017.85 1017.85
1019.57 1019.41 1019.29 1019.21 1019.13 1019.13 1019.09 1018.97 1018.85 1018.69 1018.61 1018.49 1018.41 1018.29 1018.29 1018.33 1018.29 1018.17 1018.05 1018.01 1017.85 1017.77 1017.69 1017.57 1017.41 1017.41 1017.33 1017.25 1017.21 1017.29 1017.33 1017.33 1017.33 1017.29 1017.29 1017.29 1017.21 1017.17 1017.21 1017.25 1017.25 1017.29 1017.29 1017.33 1017.37 1017.41 1017.41 1017.49 1017.61 1017.69 1017.65 1017.61 1017.61 1017.57 1017.49 1017.41 1017.49 1017.57 1017.57 1017.57 1017.49 1017.49 1017.57 1017.61 1017.45 1017.41 1017.41 1017.49 1017.53
1019.53 1019.37 1019.25 1019.17 1019.09 1019.01 1018.97 1018.85 1018.69 1018.53 1018.41 1018.25 1018.17 1018.13 1018.17 1018.13 1018.09 1018.01 1017.85 1017.69 1017.61 1017.61 1017.57 1017.41 1017.29 1017.25 1017.21 1017.13 1017.05 1017.09 1017.13 1017.13 1017.13 1017.13 1017.13 1017.09 1017.01 1017.01 1017.01 1017.01 1017.01 1017.01 1017.05 1017.09 1017.13 1017.13 1017.13 1017.21 1017.33 1017.41 1017.37 1017.29 1017.29 1017.25 1017.13 1017.05 1017.13 1017.21 1017.21 1017.13 1017.13 1017.17 1017.25 1017.13 1017.01 1017.01 1017.13 1017.17 1017.17
1019.65 1019.49 1019.37 1019.21 1019.05 1018.93 1018.77 1018.61 1018.45 1018.29 1018.21 1018.13 1018.09 1018.05 1018.01 1017.97 1017.85 1017.77 1017.69 1017.57 1017.53 1017.49 1017.41 1017.29 1017.13 1017.05 1017.01 1016.97 1016.93 1016.93 1016.93 1016.89 1016.97 1017.01 1016.97 1016.89 1016.85 1016.81 1016.81 1016.81 1016.85 1016.85 1016.81 1016.81 1016.85 1016.85 1016.85 1016.93 1017.01 1017.05 1017.01 1016.93 1016.93 1016.85 1016.73 1016.69 1016.73 1016.81 1016.77 1016.73 1016.77 1016.81 1016.81 1016.69 1016.61 1016.65 1016.69 1016.69 1016.69
1019.57 1019.45 1019.37 1019.25 1019.05 1018.89 1018.69 1018.53 1018.41 1018.29 1018.13 1018.05 1018.05 1018.01 1017.89 1017.81 1017.73 1017.65 1017.61 1017.57 1017.41 1017.25 1017.13 1017.05 1017.01 1016.93 1016.85 1016.85 1016.85 1016.81 1016.77 1016.77 1016.73 1016.73 1016.77 1016.69 1016.61 1016.57 1016.57 1016.61 1016.61 1016.57 1016.57 1016.57 1016.57 1016.57 1016.57 1016.65 1016.69 1016.69 1016.61 1016.57 1016.53 1016.41 1016.29 1016.29 1016.37 1016.41 1016.37 1016.33 1016.33 1016.37 1016.37 1016.29 1016.17 1016.21 1016.29 1016.25 1016.25
1019.45 1019.33 1019.25 1019.21 1019.13 1019.01 1018.89 1018.73 1018.61 1018.45 1018.29 1018.17 1018.13 1018.01 1017.85 1017.69 1017.57 1017.53 1017.49 1017.37 1017.13 1016.97 1016.89 1016.93 1016.85 1016.77 1016.69 1016.73 1016.73 1016.69 1016.65 1016.61 1016.57 1016.57 1016.53 1016.49 1016.37 1016.33 1016.29 1016.29 1016.29 1016.29 1016.25 1016.21 1016.21 1016.25 1016.29 1016.41 1016.41 1016.33 1016.25 1016.17 1016.09 1015.93 1015.85 1015.93 1016.01 1016.01 1016.01 1015.97 1015.89 1015.85 1015.85 1015.81 1015.77 1015.81 1015.85 1015.81 1015.81
1019.41 1019.29 1019.13 1019.05 1019.05 1019.01 1018.89 1018.85 1018.73 1018.65 1018.57 1018.41 1018.29 1018.09 1017.85 1017.57 1017.45 1017.37 1017.29 1017.13 1017.01 1016.85 1016.77 1016.69 1016.69 1016.65 1016.57 1016.57 1016.57 1016.49 1016.41 1016.37 1016.33 1016.29 1016.29 1016.25 1016.13 1016.13 1016.05 1016.01 1015.93 1015.93 1015.89 1015.85 1015.89 1015.89 1015.97 1016.05 1016.09 1016.01 1015.85 1015.77 1015.69 1015.53 1015.41 1015.53 1015.57 1015.61 1015.57 1015.53 1015.41 1015.41 1015.41 1015.37 1015.29 1015.37 1015.41 1015.37 1015.37
1019.29 1019.21 1019.09 1018.97 1018.93 1018.85 1018.77 1018.69 1018.69 1018.61 1018.53 1018.41 1018.29 1018.09 1017.85 1017.65 1017.45 1017.33 1017.17 1017.09 1016.97 1016.77 1016.61 1016.53 1016.49 1016.45 1016.41 1016.41 1016.33 1016.25 1016.17 1016.13 1016.09 1016.01 1016.01 1015.97 1015.89 1015.85 1015.73 1015.73 1015.65 1015.57 1015.53 1015.45 1015.49 1015.49 1015.53 1015.61 1015.65 1015.57 1015.45 1015.37 1015.29 1015.09 1015.01 1015.09 1015.13 1015.17 1015.13 1015.01 1014.89 1014.85 1014.89 1014.85 1014.89 1014.93 1014.97 1014.93 1014.93
1019.13 1019.01 1018.89 1018.81 1018.73 1018.73 1018.69 1018.57 1018.53 1018.49 1018.41 1018.29 1018.13 1018.01 1017.85 1017.69 1017.57 1017.41 1017.29 1017.09 1016.85 1016.65 1016.57 1016.41 1016.29 1016.25 1016.25 1016.25 1016.17 1016.05 1015.97 1015.89 1015.81 1015.73 1015.69 1015.65 1015.65 1015.57 1015.45 1015.41 1015.37 1015.29 1015.13 1015.05 1015.05 1015.05 1015.09 1015.13 1015.13 1015.09 1015.01 1014.89 1014.77 1014.61 1014.53 1014.61 1014.69 1014.69 1014.65 1014.57 1014.53 1014.41 1014.37 1014.41 1014.45 1014.49 1014.49 1014.49 1014.53
1019.09 1018.93 1018.77 1018.69 1018.61 1018.57 1018.57 1018.49 1018.41 1018.37 1018.29 1018.13 1017.93 1017.77 1017.65 1017.57 1017.45 1017.37 1017.25 1017.05 1016.85 1016.73 1016.57 1016.41 1016.29 1016.21 1016.17 1016.13 1016.01 1015.85 1015.73 1015.65 1015.57 1015.53 1015.41 1015.37 1015.33 1015.29 1015.17 1015.09 1015.01 1014.89 1014.77 1014.69 1014.61 1014.65 1014.69 1014.69 1014.69 1014.57 1014.41 1014.37 1014.29 1014.17 1014.09 1014.13 1014.25 1014.29 1014.17 1014.13 1014.09 1014.01 1013.97 1013.93 1014.01 1014.01 1014.01 1014.01 1014.05
1019.05 1018.89 1018.77 1018.65 1018.57 1018.49 1018.41 1018.37 1018.29 1018.17 1018.09 1017.97 1017.77 1017.57 1017.41 1017.33 1017.25 1017.13 1017.01 1016.97 1016.93 1016.77 1016.57 1016.33 1016.29 1016.17 1016.09 1015.93 1015.81 1015.65 1015.53 1015.41 1015.33 1015.25 1015.17 1015.09 1015.01 1014.93 1014.85 1014.77 1014.69 1014.57 1014.45 1014.29 1014.25 1014.29 1014.29 1014.29 1014.21 1014.09 1013.93 1013.85 1013.85 1013.81 1013.73 1013.77 1013.85 1013.85 1013.73 1013.65 1013.65 1013.65 1013.57 1013.53 1013.53 1013.57 1013.57 1013.57 1013.57
1019.01 1018.85 1018.69 1018.61 1018.49 1018.41 1018.33 1018.29 1018.13 1018.01 1017.85 1017.73 1017.57 1017.41 1017.29 1017.13 1017.01 1016.93 1016.85 1016.85 1016.73 1016.53 1016.29 1016.13 1016.13 1016.05 1015.89 1015.73 1015.57 1015.41 1015.25 1015.17 1015.13 1015.01 1014.97 1014.85 1014.69 1014.61 1014.53 1014.41 1014.37 1014.29 1014.13 1013.97 1013.93 1013.97 1013.97 1013.89 1013.85 1013.73 1013.57 1013.49 1013.45 1013.45 1013.41 1013.37 1013.45 1013.41 1013.33 1013.25 1013.21 1013.25 1013.17 1013.05 1013.05 1013.13 1013.13 1013.13 1013.17
1018.97 1018.81 1018.65 1018.49 1018.41 1018.29 1018.25 1018.13 1018.01 1017.85 1017.73 1017.57 1017.37 1017.21 1017.01 1016.85 1016.73 1016.69 1016.65 1016.57 1016.41 1016.21 1016.01 1015.85 1015.77 1015.73 1015.61 1015.41 1015.25 1015.13 1015.01 1014.89 1014.85 1014.77 1014.69 1014.57 1014.45 1014.33 1014.25 1014.13 1014.05 1013.93 1013.81 1013.69 1013.65 1013.65 1013.61 1013.53 1013.49 1013.41 1013.29 1013.17 1013.09 1013.05 1013.01 1013.01 1013.01 1013.01 1012.97 1012.89 1012.85 1012.85 1012.73 1012.61 1012.61 1012.69 1012.77 1012.81 1012.81
1018.89 1018.73 1018.57 1018.45 1018.33 1018.25 1018.13 1018.01 1017.85 1017.69 1017.53 1017.37 1017.17 1017.01 1016.85 1016.65 1016.53 1016.45 1016.41 1016.33 1016.13 1015.93 1015.77 1015.57 1015.45 1015.33 1015.21 1015.05 1014.93 1014.85 1014.73 1014.65 1014.57 1014.53 1014.41 1014.29 1014.21 1014.13 1014.01 1013.85 1013.77 1013.69 1013.57 1013.41 1013.37 1013.37 1013.33 1013.25 1013.13 1013.05 1013.01 1012.85 1012.73 1012.65 1012.61 1012.61 1012.61 1012.57 1012.57 1012.49 1012.45 1012.41 1012.29 1012.17 1012.25 1012.33 1012.41 1012.45 1012.41
1018.77 1018.65 1018.53 1018.41 1018.25 1018.13 1018.01 1017.89 1017.73 1017.57 1017.37 1017.21 1016.97 1016.77 1016.61 1016.45 1016.29 1016.17 1016.13 1016.05 1015.85 1015.73 1015.57 1015.41 1015.17 1015.01 1014.85 1014.77 1014.69 1014.61 1014.53 1014.45 1014.41 1014.33 1014.21 1014.05 1013.93 1013.85 1013.73 1013.57 1013.49 1013.41 1013.29 1013.21 1013.13 1013.09 1013.05 1013.01 1012.85 1012.77 1012.69 1012.57 1012.41 1012.33 1012.29 1012.29 1012.25 1012.21 1012.13 1012.13 1012.01 1011.93 1011.85 1011.81 1011.85 1011.97 1012.01 1012.01 1012.01
1018.69 1018.53 1018.41 1018.29 1018.13 1018.01 1017.85 1017.73 1017.53 1017.37 1017.21 1017.01 1016.77 1016.57 1016.45 1016.29 1016.09 1015.97 1015.85 1015.73 1015.57 1015.41 1015.29 1015.13 1014.97 1014.73 1014.57 1014.49 1014.45 1014.41 1014.33 1014.25 1014.21 1014.13 1014.01 1013.81 1013.65 1013.57 1013.45 1013.33 1013.21 1013.13 1013.09 1013.01 1012.93 1012.85 1012.77 1012.69 1012.61 1012.57 1012.45 1012.37 1012.25 1012.13 1012.05 1012.01 1011.93 1011.89 1011.81 1011.69 1011.57 1011.49 1011.41 1011.41 1011.45 1011.53 1011.57 1011.57 1011.61
1018.61 1018.41 1018.25 1018.13 1018.01 1017.85 1017.69 1017.53 1017.37 1017.17 1017.01 1016.81 1016.57 1016.41 1016.29 1016.13 1015.93 1015.77 1015.65 1015.53 1015.37 1015.21 1015.05 1014.89 1014.73 1014.57 1014.41 1014.25 1014.13 1014.13 1014.13 1014.01 1013.89 1013.81 1013.73 1013.53 1013.41 1013.29 1013.13 1013.05 1012.93 1012.85 1012.81 1012.77 1012.69 1012.57 1012.41 1012.33 1012.29 1012.25 1012.21 1012.13 1012.01 1011.89 1011.81 1011.69 1011.61 1011.53 1011.41 1011.29 1011.21 1011.13 1011.01 1011.01 1011.01 1011.05 1011.13 1011.13 1011.13
1018.57 1018.33 1018.13 1018.01 1017.89 1017.73 1017.53 1017.33 1017.17 1017.01 1016.81 1016.61 1016.41 1016.29 1016.13 1015.97 1015.81 1015.61 1015.45 1015.29 1015.25 1015.13 1014.93 1014.69 1014.57 1014.41 1014.29 1014.13 1014.01 1013.93 1013.85 1013.77 1013.61 1013.45 1013.37 1013.25 1013.09 1012.97 1012.85 1012.73 1012.65 1012.57 1012.49 1012.41 1012.33 1012.21 1012.09 1011.97 1011.89 1011.85 1011.85 1011.73 1011.65 1011.53 1011.41 1011.29 1011.21 1011.09 1011.01 1010.89 1010.81 1010.69 1010.65 1010.61 1010.61 1010.65 1010.69 1010.73 1010.69
1018.45 1018.29 1018.09 1017.93 1017.73 1017.57 1017.37 1017.17 1017.01 1016.85 1016.65 1016.45 1016.29 1016.13 1015.93 1015.81 1015.69 1015.53 1015.33 1015.13 1015.05 1014.93 1014.77 1014.57 1014.37 1014.21 1014.09 1014.01 1013.85 1013.69 1013.57 1013.49 1013.33 1013.17 1013.01 1012.93 1012.81 1012.69 1012.57 1012.41 1012.33 1012.29 1012.17 1012.09 1012.01 1011.85 1011.73 1011.65 1011.61 1011.57 1011.49 1011.41 1011.29 1011.13 1011.01 1010.93 1010.81 1010.69 1010.57 1010.53 1010.41 1010.37 1010.29 1010.29 1010.29 1010.29 1010.33 1010.33 1010.29
1018.41 1018.17 1018.01 1017.81 1017.57 1017.41 1017.21 1017.01 1016.85 1016.69 1016.49 1016.29 1016.13 1016.01 1015.81 1015.65 1015.49 1015.37 1015.21 1015.01 1014.81 1014.69 1014.57 1014.41 1014.25 1014.05 1013.89 1013.73 1013.61 1013.45 1013.29 1013.17 1013.05 1012.89 1012.73 1012.61 1012.53 1012.41 1012.25 1012.13 1012.01 1011.89 1011.85 1011.77 1011.65 1011.53 1011.41 1011.37 1011.29 1011.25 1011.13 1011.01 1010.89 1010.77 1010.65 1010.53 1010.41 1010.29 1010.21 1010.13 1010.09 1010.01 1009.93 1009.93 1009.93 1009.93 1009.93 1009.93 1009.89
1018.29 1018.05 1017.85 1017.61 1017.45 1017.29 1017.09 1016.85 1016.69 1016.53 1016.37 1016.17 1016.01 1015.85 1015.65 1015.45 1015.29 1015.17 1015.01 1014.77 1014.61 1014.49 1014.37 1014.25 1014.09 1013.89 1013.73 1013.53 1013.37 1013.21 1013.01 1012.85 1012.81 1012.65 1012.45 1012.33 1012.21 1012.09 1011.97 1011.85 1011.73 1011.57 1011.49 1011.41 1011.33 1011.21 1011.13 1011.05 1010.97 1010.85 1010.77 1010.65 1010.53 1010.41 1010.29 1010.17 1010.05 1009.97 1009.85 1009.77 1009.69 1009.57 1009.57 1009.57 1009.57 1009.57 1009.57 1009.57 1009.57
1018.05 1017.85 1017.65 1017.45 1017.29 1017.13 1016.93 1016.69 1016.53 1016.37 1016.21 1016.01 1015.85 1015.65 1015.49 1015.29 1015.13 1014.93 1014.73 1014.57 1014.41 1014.29 1014.17 1014.01 1013.85 1013.69 1013.49 1013.33 1013.13 1012.97 1012.73 1012.57 1012.49 1012.37 1012.21 1012.05 1011.89 1011.73 1011.61 1011.57 1011.41 1011.29 1011.17 1011.09 1011.01 1010.89 1010.77 1010.69 1010.57 1010.49 1010.41 1010.29 1010.13 1010.01 1009.89 1009.81 1009.69 1009.57 1009.45 1009.37 1009.29 1009.21 1009.13 1009.13 1009.17 1009.17 1009.17 1009.17 1009.17
1017.85 1017.69 1017.49 1017.33 1017.13 1016.97 1016.77 1016.57 1016.41 1016.25 1016.05 1015.85 1015.65 1015.45 1015.29 1015.09 1014.89 1014.69 1014.49 1014.33 1014.21 1014.09 1013.93 1013.77 1013.61 1013.41 1013.29 1013.13 1012.97 1012.77 1012.57 1012.37 1012.17 1012.01 1011.89 1011.77 1011.61 1011.41 1011.29 1011.21 1011.13 1011.01 1010.85 1010.69 1010.65 1010.57 1010.49 1010.33 1010.21 1010.09 1010.01 1009.93 1009.77 1009.61 1009.49 1009.41 1009.29 1009.17 1009.09 1008.97 1008.85 1008.81 1008.77 1008.73 1008.73 1008.69 1008.69 1008.69 1008.69
1017.73 1017.57 1017.37 1017.17 1017.01 1016.85 1016.65 1016.45 1016.29 1016.09 1015.85 1015.69 1015.45 1015.29 1015.09 1014.85 1014.69 1014.49 1014.29 1014.13 1014.01 1013.85 1013.69 1013.53 1013.33 1013.17 1013.01 1012.85 1012.69 1012.57 1012.41 1012.17 1011.93 1011.73 1011.57 1011.41 1011.29 1011.13 1011.01 1010.89 1010.81 1010.69 1010.57 1010.41 1010.29 1010.25 1010.13 1010.01 1009.85 1009.69 1009.57 1009.49 1009.33 1009.21 1009.05 1008.97 1008.85 1008.77 1008.65 1008.57 1008.45 1008.37 1008.29 1008.29 1008.29 1008.29 1008.29 1008.29 1008.29
1017.57 1017.41 1017.25 1017.09 1016.93 1016.73 1016.53 1016.33 1016.17 1015.97 1015.73 1015.49 1015.29 1015.09 1014.89 1014.69 1014.49 1014.29 1014.13 1013.97 1013.81 1013.61 1013.45 1013.29 1013.13 1012.97 1012.81 1012.57 1012.41 1012.29 1012.13 1011.93 1011.73 1011.53 1011.29 1011.05 1010.93 1010.81 1010.69 1010.57 1010.41 1010.29 1010.17 1010.09 1009.85 1009.73 1009.57 1009.49 1009.33 1009.17 1009.05 1008.97 1008.85 1008.69 1008.57 1008.45 1008.37 1008.29 1008.21 1008.09 1008.01 1007.89 1007.85 1007.77 1007.73 1007.77 1007.81 1007.81 1007.81
1017.49 1017.33 1017.13 1017.01 1016.81 1016.61 1016.41 1016.21 1016.01 1015.81 1015.57 1015.33 1015.13 1014.93 1014.73 1014.53 1014.33 1014.17 1014.01 1013.81 1013.61 1013.41 1013.29 1013.09 1012.89 1012.69 1012.53 1012.33 1012.09 1011.89 1011.77 1011.61 1011.45 1011.29 1011.05 1010.81 1010.61 1010.45 1010.33 1010.25 1010.09 1009.93 1009.85 1009.69 1009.49 1009.29 1009.13 1008.97 1008.81 1008.65 1008.53 1008.41 1008.29 1008.13 1008.01 1007.85 1007.73 1007.69 1007.61 1007.53 1007.41 1007.33 1007.29 1007.25 1007.17 1007.21 1007.25 1007.29 1007.29
1017.41 1017.25 1017.05 1016.85 1016.69 1016.49 1016.29 1016.05 1015.85 1015.65 1015.41 1015.17 1015.01 1014.77 1014.57 1014.37 1014.17 1014.01 1013.81 1013.61 1013.41 1013.21 1013.01 1012.85 1012.69 1012.45 1012.25 1012.01 1011.81 1011.65 1011.45 1011.29 1011.13 1011.01 1010.85 1010.65 1010.41 1010.21 1010.01 1009.85 1009.73 1009.61 1009.49 1009.29 1009.09 1008.85 1008.69 1008.49 1008.33 1008.17 1008.05 1007.93 1007.77 1007.61 1007.45 1007.29 1007.17 1007.13 1007.05 1006.97 1006.85 1006.81 1006.73 1006.69 1006.65 1006.69 1006.69 1006.69 1006.73
1017.33 1017.13 1016.93 1016.73 1016.57 1016.33 1016.13 1015.89 1015.73 1015.49 1015.29 1015.05 1014.85 1014.57 1014.37 1014.21 1014.01 1013.85 1013.69 1013.45 1013.25 1013.05 1012.85 1012.65 1012.41 1012.21 1012.01 1011.77 1011.57 1011.41 1011.21 1011.01 1010.85 1010.69 1010.53 1010.33 1010.17 1009.97 1009.73 1009.57 1009.41 1009.25 1009.09 1008.89 1008.69 1008.45 1008.29 1008.05 1007.89 1007.73 1007.57 1007.41 1007.33 1007.17 1007.05 1006.89 1006.73 1006.61 1006.49 1006.41 1006.29 1006.21 1006.17 1006.13 1006.13 1006.13 1006.17 1006.17 1006.17
1017.25 1017.05 1016.85 1016.65 1016.41 1016.21 1015.97 1015.77 1015.57 1015.33 1015.09 1014.89 1014.65 1014.41 1014.25 1014.05 1013.85 1013.69 1013.45 1013.29 1013.09 1012.85 1012.65 1012.41 1012.13 1011.97 1011.77 1011.57 1011.33 1011.13 1010.97 1010.77 1010.61 1010.45 1010.25 1010.05 1009.85 1009.65 1009.45 1009.29 1009.09 1008.89 1008.69 1008.53 1008.29 1008.09 1007.89 1007.73 1007.53 1007.33 1007.17 1007.05 1006.93 1006.77 1006.61 1006.49 1006.33 1006.13 1006.01 1005.85 1005.73 1005.65 1005.61 1005.61 1005.61 1005.61 1005.61 1005.65 1005.69
1017.13 1016.97 1016.73 1016.53 1016.29 1016.05 1015.85 1015.61 1015.41 1015.13 1014.93 1014.69 1014.49 1014.29 1014.05 1013.85 1013.69 1013.45 1013.29 1013.09 1012.89 1012.65 1012.41 1012.17 1012.01 1011.77 1011.57 1011.33 1011.13 1010.93 1010.69 1010.49 1010.37 1010.21 1010.01 1009.81 1009.57 1009.33 1009.13 1008.93 1008.73 1008.57 1008.37 1008.17 1008.01 1007.77 1007.57 1007.33 1007.13 1006.97 1006.77 1006.61 1006.49 1006.41 1006.29 1006.09 1005.93 1005.73 1005.57 1005.41 1005.29 1005.25 1005.13 1005.09 1005.09 1005.13 1005.13 1005.13 1005.21
1017.01 1016.85 1016.61 1016.41 1016.13 1015.89 1015.69 1015.41 1015.21 1015.01 1014.77 1014.53 1014.29 1014.13 1013.93 1013.73 1013.53 1013.33 1013.13 1012.89 1012.65 1012.37 1012.13 1012.01 1011.81 1011.57 1011.33 1011.13 1010.97 1010.73 1010.53 1010.29 1010.13 1009.97 1009.81 1009.61 1009.33 1009.05 1008.81 1008.61 1008.45 1008.29 1008.13 1007.89 1007.69 1007.41 1007.17 1007.01 1006.77 1006.57 1006.41 1006.21 1006.09 1005.97 1005.85 1005.69 1005.53 1005.41 1005.25 1005.13 1005.01 1004.93 1004.85 1004.77 1004.69 1004.65 1004.69 1004.69 1004.73
1016.89 1016.69 1016.53 1016.29 1016.01 1015.77 1015.49 1015.29 1015.01 1014.81 1014.57 1014.41 1014.17 1014.01 1013.73 1013.53 1013.33 1013.13 1012.93 1012.69 1012.45 1012.17 1011.93 1011.77 1011.57 1011.33 1011.05 1010.85 1010.69 1010.49 1010.29 1010.09 1009.89 1009.73 1009.53 1009.33 1009.09 1008.81 1008.53 1008.33 1008.13 1008.01 1007.81 1007.57 1007.29 1007.05 1006.85 1006.57 1006.41 1006.17 1006.01 1005.85 1005.69 1005.57 1005.45 1005.29 1005.21 1005.05 1004.93 1004.81 1004.69 1004.65 1004.57 1004.41 1004.29 1004.25 1004.25 1004.25 1004.29
1016.77 1016.57 1016.41 1016.17 1015.89 1015.61 1015.33 1015.13 1014.85 1014.61 1014.41 1014.17 1013.97 1013.77 1013.57 1013.33 1013.09 1012.85 1012.65 1012.45 1012.29 1012.05 1011.81 1011.57 1011.33 1011.13 1010.85 1010.65 1010.41 1010.17 1009.97 1009.81 1009.61 1009.41 1009.21 1009.01 1008.81 1008.57 1008.29 1008.05 1007.85 1007.69 1007.45 1007.21 1006.97 1006.69 1006.49 1006.29 1006.05 1005.85 1005.65 1005.49 1005.33 1005.21 1005.09 1004.97 1004.85 1004.73 1004.61 1004.49 1004.41 1004.29 1004.21 1004.13 1004.01 1003.89 1003.85 1003.85 1003.81
1016.65 1016.41 1016.21 1016.01 1015.73 1015.41 1015.13 1014.85 1014.69 1014.45 1014.21 1014.01 1013.73 1013.57 1013.37 1013.17 1012.93 1012.69 1012.41 1012.21 1012.01 1011.81 1011.57 1011.33 1011.13 1010.89 1010.69 1010.41 1010.25 1010.01 1009.73 1009.53 1009.33 1009.13 1008.97 1008.77 1008.57 1008.33 1008.05 1007.81 1007.57 1007.33 1007.13 1006.89 1006.61 1006.37 1006.13 1005.93 1005.73 1005.53 1005.33 1005.13 1005.01 1004.89 1004.77 1004.65 1004.53 1004.41 1004.29 1004.13 1004.01 1003.93 1003.85 1003.81 1003.73 1003.57 1003.49 1003.41 1003.41
1016.53 1016.29 1016.05 1015.77 1015.53 1015.25 1014.97 1014.69 1014.49 1014.29 1014.05 1013.81 1013.57 1013.29 1013.13 1012.93 1012.73 1012.53 1012.25 1012.01 1011.73 1011.49 1011.25 1011.01 1010.85 1010.65 1010.41 1010.21 1010.05 1009.85 1009.57 1009.29 1009.09 1008.85 1008.69 1008.45 1008.29 1008.01 1007.73 1007.41 1007.21 1007.01 1006.85 1006.57 1006.29 1006.05 1005.85 1005.57 1005.41 1005.21 1005.05 1004.89 1004.73 1004.61 1004.49 1004.37 1004.25 1004.13 1003.97 1003.85 1003.73 1003.61 1003.57 1003.49 1003.41 1003.29 1003.17 1003.13 1003.05
1016.37 1016.17 1015.89 1015.61 1015.33 1015.09 1014.85 1014.57 1014.33 1014.13 1013.89 1013.65 1013.41 1013.13 1012.89 1012.65 1012.45 1012.29 1012.05 1011.81 1011.53 1011.25 1010.97 1010.73 1010.57 1010.37 1010.17 1010.01 1009.77 1009.57 1009.37 1009.13 1008.89 1008.61 1008.37 1008.17 1007.97 1007.69 1007.37 1007.05 1006.81 1006.65 1006.45 1006.29 1006.01 1005.73 1005.53 1005.29 1005.13 1004.93 1004.73 1004.61 1004.53 1004.37 1004.25 1004.13 1004.01 1003.85 1003.69 1003.57 1003.41 1003.33 1003.25 1003.17 1003.13 1003.01 1002.89 1002.81 1002.69
1016.17 1016.01 1015.73 1015.45 1015.21 1014.97 1014.69 1014.45 1014.25 1014.01 1013.73 1013.49 1013.25 1013.01 1012.77 1012.45 1012.17 1012.01 1011.81 1011.57 1011.33 1011.01 1010.69 1010.49 1010.29 1010.13 1009.93 1009.73 1009.49 1009.29 1009.09 1008.93 1008.69 1008.41 1008.09 1007.85 1007.65 1007.37 1007.01 1006.69 1006.41 1006.25 1006.13 1005.93 1005.73 1005.49 1005.25 1005.05 1004.85 1004.69 1004.53 1004.41 1004.29 1004.13 1004.01 1003.85 1003.73 1003.53 1003.37 1003.25 1003.13 1003.01 1002.97 1002.89 1002.81 1002.69 1002.57 1002.49 1002.41
1015.97 1015.81 1015.61 1015.41 1015.09 1014.85 1014.57 1014.37 1014.13 1013.85 1013.57 1013.29 1013.01 1012.81 1012.57 1012.37 1012.05 1011.77 1011.57 1011.37 1011.13 1010.85 1010.49 1010.25 1010.01 1009.85 1009.69 1009.49 1009.25 1009.01 1008.73 1008.57 1008.41 1008.13 1007.85 1007.53 1007.29 1007.01 1006.73 1006.37 1006.09 1005.89 1005.77 1005.61 1005.45 1005.25 1005.01 1004.85 1004.65 1004.49 1004.37 1004.25 1004.05 1003.89 1003.73 1003.57 1003.41 1003.21 1003.05 1002.93 1002.81 1002.73 1002.69 1002.57 1002.49 1002.41 1002.29 1002.17 1002.09
1015.81 1015.65 1015.49 1015.29 1015.01 1014.69 1014.45 1014.25 1014.01 1013.73 1013.45 1013.13 1012.85 1012.57 1012.37 1012.13 1011.85 1011.57 1011.29 1011.13 1010.97 1010.73 1010.41 1010.13 1009.85 1009.61 1009.41 1009.25 1008.97 1008.65 1008.37 1008.21 1008.05 1007.85 1007.57 1007.21 1006.93 1006.69 1006.45 1006.13 1005.85 1005.61 1005.49 1005.41 1005.21 1005.01 1004.85 1004.69 1004.45 1004.29 1004.13 1004.01 1003.85 1003.65 1003.45 1003.29 1003.09 1002.89 1002.77 1002.65 1002.57 1002.45 1002.37 1002.29 1002.21 1002.09 1002.01 1001.85 1001.77
1015.65 1015.49 1015.29 1015.13 1014.89 1014.61 1014.33 1014.05 1013.81 1013.57 1013.33 1013.05 1012.73 1012.41 1012.17 1011.97 1011.69 1011.37 1011.13 1010.97 1010.77 1010.57 1010.29 1010.01 1009.73 1009.45 1009.21 1008.97 1008.69 1008.37 1008.05 1007.77 1007.65 1007.49 1007.25 1006.97 1006.69 1006.41 1006.17 1005.93 1005.65 1005.41 1005.29 1005.17 1005.01 1004.85 1004.65 1004.45 1004.25 1004.05 1003.85 1003.73 1003.57 1003.41 1003.21 1003.01 1002.81 1002.61 1002.49 1002.41 1002.29 1002.21 1002.13 1002.01 1001.89 1001.81 1001.69 1001.57 1001.49
1015.49 1015.33 1015.13 1014.93 1014.69 1014.49 1014.21 1013.89 1013.57 1013.29 1013.09 1012.85 1012.61 1012.33 1012.01 1011.73 1011.45 1011.21 1011.01 1010.77 1010.57 1010.41 1010.13 1009.85 1009.49 1009.21 1008.97 1008.73 1008.41 1008.09 1007.73 1007.41 1007.25 1007.13 1006.93 1006.69 1006.45 1006.21 1006.01 1005.77 1005.53 1005.29 1005.09 1004.97 1004.81 1004.61 1004.41 1004.17 1003.97 1003.73 1003.57 1003.41 1003.25 1003.05 1002.89 1002.69 1002.49 1002.33 1002.21 1002.13 1002.09 1002.01 1001.85 1001.73 1001.61 1001.49 1001.41 1001.29 1001.21
Wind_Speed
7 7 6 6 6 5 5 5 6 6 6 6 6 6 6 5 6 6 6 5 5 6 6 6 6 6 6 6 6 7 7 8 8 9 10 11 11 11 11 11 11 11 11 11 11 10 9 9 8 7 6 7 7 8 8 8 9 10 10 11 11 11 12 13 14 15 16 16 13
7 7 7 7 6 6 5 5 6 6 6 6 6 6 6 5 6 6 6 6 5 5 6 6 6 6 6 7 7 7 7 8 8 9 9 10 11 11 10 10 10 10 11 11 11 10 9 9 8 7 6 6 7 8 9 9 9 10 11 13 11 10 10 12 14 15 15 15 14
7 6 6 6 6 5 5 5 6 7 7 6 5 5 5 5 5 6 6 6 6 5 5 6 6 6 7 8 7 7 7 7 8 8 8 9 9 10 10 10 10 10 11 11 10 10 9 9 8 7 7 7 8 9 9 10 10 10 11 13 11 9 9 10 12 12 12 12 13
7 6 6 6 7 7 7 6 7 7 7 6 5 5 5 5 5 5 6 6 6 5 6 6 6 6 7 7 7 7 7 7 7 8 8 9 9 9 10 9 10 10 10 10 10 11 10 9 8 7 8 9 10 10 10 9 10 10 10 10 9 9 10 10 11 10 10 10 11
7 6 6 7 8 8 7 6 6 6 6 5 4 4 5 5 5 5 5 5 6 6 7 7 6 6 7 6 7 7 7 7 7 8 8 8 9 9 9 9 10 10 10 10 11 11 11 10 8 7 8 9 9 9 9 10 10 9 9 8 8 9 10 10 10 9 9 10 9
8 7 7 6 7 7 7 6 6 7 6 5 5 5 6 5 5 5 5 6 7 7 7 7 7 7 7 7 7 7 7 7 7 7 7 8 9 9 9 9 10 10 10 10 11 11 10 9 8 7 8 8 9 10 11 11 11 10 10 9 9 9 9 11 10 9 9 11 11
7 8 8 7 7 6 6 6 6 6 6 5 6 8 8 8 6 7 7 7 6 6 6 6 6 7 7 7 7 7 7 7 7 7 7 8 8 9 9 10 10 10 10 11 11 10 10 9 8 8 8 9 9 10 11 11 11 11 11 12 10 9 9 11 9 9 11 14 15
6 7 7 7 7 6 6 6 5 5 5 5 7 9 10 9 9 8 8 6 6 6 6 5 6 7 7 7 7 7 7 7 7 7 7 8 9 9 10 10 10 11 11 11 11 11 10 8 8 8 9 8 8 10 11 12 12 13 13 14 12 10 9 9 9 10 12 15 16
7 7 7 6 6 5 5 5 5 5 5 7 8 9 9 9 9 9 8 7 7 6 5 5 7 7 7 7 8 8 8 7 8 8 8 8 8 9 9 9 10 11 11 11 11 11 11 9 8 8 9 9 9 10 11 12 13 14 14 14 13 12 12 11 11 12 13 14 16
8 8 7 7 6 5 5 5 5 5 6 8 9 9 9 10 9 8 7 7 6 6 6 6 6 7 7 7 8 8 7 7 7 8 8 8 9 9 10 10 10 11 12 11 11 11 10 9 9 10 10 10 12 12 12 12 13 14 14 12 13 14 14 14 13 14 14 15 16
8 8 7 7 7 6 5 5 5 5 6 7 9 9 9 9 9 8 7 6 6 7 8 7 6 7 7 7 7 7 7 7 7 7 8 9 10 10 11 11 11 12 13 12 11 10 9 9 10 12 13 12 12 13 13 13 14 15 15 13 14 15 16 16 15 15 15 15 16
8 8 7 7 7 6 6 6 6 6 6 8 8 9 8 8 8 7 7 6 7 8 8 7 7 7 7 7 7 7 8 7 8 8 9 10 11 11 12 12 12 13 14 14 12 10 9 10 11 13 14 14 12 12 12 13 14 15 15 16 15 16 16 17 16 15 14 14 15
8 8 8 8 7 6 6 6 6 6 7 8 8 8 8 8 8 7 6 7 8 9 8 7 7 7 8 8 8 8 8 8 9 9 10 10 11 11 12 12 12 13 14 13 12 11 10 11 12 13 14 15 13 12 13 13 14 15 15 16 16 17 17 18 17 15 14 14 15
8 7 7 7 7 6 6 6 6 6 7 8 8 8 8 8 8 7 6 7 9 9 9 8 8 8 8 9 9 9 9 9 9 10 10 11 11 12 12 12 12 13 13 12 12 11 12 12 13 14 15 15 15 14 14 14 14 14 15 16 17 17 18 18 17 16 15 16 17
8 8 7 6 6 6 6 6 6 6 7 8 8 8 7 8 8 7 7 8 9 9 8 8 8 9 9 9 9 9 9 10 10 10 11 12 12 13 13 13 13 13 13 12 12 12 13 14 14 14 15 15 16 15 15 14 14 14 15 15 16 17 17 17 16 16 15 16 17
8 8 7 6 6 6 6 6 6 6 7 8 8 8 7 8 8 7 8 8 8 8 8 8 9 9 9 9 9 9 9 9 10 11 11 12 13 13 13 13 13 13 13 13 13 13 13 13 13 14 14 15 15 15 15 14 14 15 15 16 16 17 17 17 16 16 16 16 17
8 8 7 6 7 8 7 7 6 6 7 8 8 8 8 8 8 8 8 9 9 9 9 10 10 10 10 10 9 9 8 10 10 11 11 12 13 13 13 13 13 13 13 13 13 13 14 13 13 13 14 14 15 15 15 15 15 15 16 16 16 17 17 17 16 16 16 16 18
9 9 8 7 8 9 9 8 8 8 8 9 9 9 9 8 9 9 9 10 9 10 11 12 11 10 10 11 10 9 8 10 11 11 12 12 13 13 13 13 13 13 13 13 13 14 14 14 14 13 13 14 14 14 15 15 15 15 16 16 16 16 17 16 16 15 15 16 17
9 9 9 8 9 9 9 9 9 9 9 9 9 9 10 10 10 10 10 10 10 10 11 12 11 11 11 11 11 10 10 10 11 12 13 12 13 13 13 13 13 13 13 13 13 14 14 14 14 13 13 13 14 14 14 15 15 15 16 16 16 16 16 16 16 15 15 16 17
9 9 9 9 9 9 10 10 10 9 9 9 10 10 11 11 10 10 11 11 11 11 11 11 11 11 11 12 12 11 10 10 11 12 13 12 12 13 13 13 13 13 13 13 13 13 13 14 13 14 14 14 15 15 15 15 15 15 15 15 15 15 15 15 15 15 16 16 17
10 9 9 9 9 9 10 10 9 9 10 10 10 11 11 11 11 11 11 12 11 11 11 11 11 12 12 12 12 12 12 10 11 12 12 12 12 13 13 13 13 13 12 12 12 13 13 13 13 14 14 14 15 15 15 15 15 15 15 14 14 14 15 15 15 15 16 16 17
9 9 9 9 9 9 10 10 10 10 10 10 11 11 11 11 11 11 11 11 11 11 11 11 12 12 12 12 13 12 12 12 12 12 12 12 12 13 12 12 12 12 13 12 12 13 13 13 13 14 14 14 14 15 15 15 15 15 15 15 15 15 15 15 15 15 16 16 16
10 9 9 9 9 10 10 10 10 10 10 11 11 11 11 11 12 12 12 11 11 11 11 11 11 12 12 12 12 13 13 13 13 13 13 13 13 13 13 12 12 12 13 12 12 12 12 12 13 13 13 13 14 15 15 15 15 15 15 15 15 15 15 15 15 15 15 16 16
10 10 10 9 9 10 10 10 10 10 11 11 11 11 12 12 12 12 12 12 12 12 12 11 11 12 12 12 12 13 13 14 14 14 14 14 14 13 13 12 11 11 11 10 11 12 12 11 11 11 12 12 13 13 14 14 14 14 15 15 16 15 15 15 15 15 15 16 16
11 11 11 10 10 10 10 10 11 11 11 12 12 12 12 12 12 12 12 12 12 12 12 12 12 12 12 12 12 12 12 13 14 14 15 15 14 13 12 11 10 10 9 10 14 18 20 18 14 12 10 10 11 12 13 13 14 14 15 15 16 16 16 16 16 16 16 16 16
11 11 11 11 11 11 11 11 11 11 12 12 12 12 12 12 12 12 12 13 13 13 13 13 12 12 12 12 12 12 12 12 12 13 14 14 14 14 13 12 10 9 9 11 17 21 24 25 23 20 15 12 11 11 12 12 13 14 15 16 16 16 16 16 16 16 16 16 16
12 12 12 12 12 12 12 12 11 12 12 12 12 13 13 12 12 12 13 13 13 13 13 12 12 12 13 12 12 12 12 12 12 12 13 14 14 15 14 13 11 9 10 14 20 23 25 26 27 25 22 16 13 12 12 12 12 13 14 15 15 16 16 16 16 16 16 16 16
12 12 12 12 12 12 12 12 12 12 12 13 13 13 13 13 13 13 13 13 13 12 12 11 11 10 9 10 11 12 13 13 12 12 13 13 14 15 15 13 12 11 13 18 23 25 26 27 27 27 25 21 16 12 12 12 13 13 13 13 13 14 15 15 15 15 15 16 16
12 12 12 12 13 13 13 12 13 13 13 13 13 13 13 13 13 13 13 13 13 12 11 11 10 9 9 10 12 13 14 14 13 13 13 14 14 15 15 15 14 15 18 23 25 27 27 27 27 28 27 25 18 13 11 11 11 12 12 11 11 11 12 12 12 13 14 14 15
12 12 12 12 13 13 13 13 13 13 13 12 13 13 13 13 13 13 13 13 13 12 11 10 10 11 12 13 13 14 14 14 13 13 13 14 15 16 16 16 15 15 18 23 25 27 27 27 27 27 27 27 22 16 12 11 12 12 11 11 11 11 11 11 12 12 13 13 13
11 11 12 12 13 13 13 13 13 13 13 12 13 13 13 13 13 13 12 12 12 13 13 12 13 14 15 14 14 14 14 14 14 13 13 14 16 17 17 16 16 16 18 22 25 27 27 27 27 27 27 27 23 17 12 11 12 11 11 11 11 12 12 12 11 12 12 13 13
11 11 11 12 13 13 13 13 13 13 13 13 13 13 13 13 13 12 12 11 12 13 14 14 14 15 15 15 15 15 15 14 14 14 14 14 15 16 17 17 16 16 18 22 25 26 27 27 27 27 27 28 23 18 13 12 12 12 12 12 13 14 13 12 11 11 12 13 13
11 11 11 12 13 13 13 13 13 13 13 14 13 13 13 13 13 12 12 11 12 13 14 14 15 15 15 15 15 15 15 15 15 15 16 16 16 17 17 17 15 16 19 23 25 26 27 27 27 28 28 28 23 18 14 13 12 11 11 11 13 13 14 14 12 12 12 12 13
10 10 11 12 13 13 14 14 13 14 14 14 14 14 13 13 14 14 13 12 12 12 12 13 14 13 13 14 14 14 15 15 15 15 15 16 16 17 17 16 14 15 19 24 26 27 27 28 28 28 28 28 21 17 14 14 12 11 11 12 13 13 13 13 13 13 13 13 12
10 11 11 12 13 13 14 14 14 14 14 15 15 15 14 13 13 13 14 14 14 13 13 12 12 12 12 12 12 13 15 16 16 16 16 16 16 17 18 17 16 18 21 25 27 27 28 28 28 28 27 24 18 14 12 12 12 12 12 13 14 13 13 12 12 12 13 13 13
10 11 12 13 13 14 14 15 15 15 15 15 15 15 15 15 13 12 13 14 15 14 14 13 12 12 12 12 12 13 14 15 16 17 17 17 17 18 18 18 17 19 21 24 26 27 27 27 27 27 25 21 14 11 10 10 10 11 12 13 13 13 12 11 11 11 12 12 13
10 11 12 13 14 15 15 15 15 16 16 16 16 15 15 15 14 13 12 12 13 13 14 13 13 13 13 13 13 13 14 15 16 17 18 18 18 18 19 19 17 18 19 22 24 25 26 26 26 26 23 17 13 11 10 9 9 10 11 12 12 11 11 10 10 11 11 12 13
11 11 12 13 14 15 15 15 15 16 16 17 16 15 15 14 13 13 13 12 12 13 14 14 14 15 15 15 15 16 16 15 16 17 18 18 18 18 19 19 18 17 17 19 22 24 26 26 27 26 23 17 13 11 10 9 9 10 10 10 10 10 9 9 9 9 10 12 14
11 12 12 13 14 15 15 15 15 16 16 16 16 16 15 14 13 12 12 12 11 12 13 15 15 16 16 16 16 17 17 16 16 17 18 18 18 19 19 19 18 16 16 19 23 25 26 27 27 27 25 19 14 11 10 9 10 10 10 9 9 9 9 8 8 9 10 12 16
11 12 12 12 13 14 15 16 16 16 15 15 16 16 16 15 14 14 14 13 12 12 13 15 16 17 17 17 17 18 18 17 16 17 17 18 18 20 20 19 18 17 17 20 24 26 27 27 27 27 25 18 13 11 9 8 9 10 9 8 8 8 8 8 8 9 9 10 13
11 11 12 13 13 13 14 16 16 16 15 15 15 15 15 15 15 14 14 13 14 14 14 14 16 17 18 18 17 17 18 18 17 17 17 17 18 19 19 18 17 17 18 20 23 25 27 27 27 27 25 19 13 10 9 8 9 9 9 8 8 8 8 8 8 9 9 9 9
Wind_Direction
243 243 244 243 244 245 247 250 250 250 249 250 253 255 256 255 258 259 259 254 253 255 257 257 256 258 258 255 244 237 233 233 230 230 232 234 236 236 236 236 236 237 238 240 240 240 239 235 234 235 236 236 237 237 236 233 232 231 231 231 233 234 234 234 236 235 234 233 233
248 246 245 247 248 248 249 252 253 252 250 248 250 254 257 258 259 261 261 256 254 254 257 261 259 259 259 258 249 242 238 238 236 235 236 238 239 240 240 240 238 238 238 240 240 240 239 236 234 235 237 238 237 238 237 234 231 232 233 232 234 235 235 235 236 236 235 234 234
264 262 257 252 250 248 248 251 252 252 252 253 255 257 259 259 259 261 262 260 260 259 260 263 263 261 260 260 255 247 241 240 238 239 241 243 244 243 243 243 243 241 241 240 240 239 239 236 234 234 236 236 236 237 238 235 231 231 233 233 234 234 235 237 237 236 235 234 233
279 276 270 262 253 248 245 247 250 253 255 259 263 264 262 260 260 262 264 267 268 265 261 259 263 263 262 261 259 254 247 242 240 241 243 246 247 246 245 244 245 244 243 242 241 241 239 235 234 235 236 236 235 236 237 236 231 231 232 233 233 233 234 236 236 235 234 234 232
290 282 274 270 265 261 259 257 260 262 265 269 273 273 269 264 262 264 267 269 265 261 259 258 261 264 266 265 263 261 256 249 245 244 245 248 249 248 246 243 243 244 245 243 242 240 239 234 235 236 237 237 236 236 236 235 233 233 233 234 232 231 232 235 235 234 233 234 232
298 293 287 281 279 279 280 280 276 276 278 283 280 276 272 267 262 258 257 257 259 260 261 261 262 264 266 265 264 263 261 256 248 245 245 248 251 251 248 245 243 243 244 244 241 240 237 232 236 237 237 237 239 239 237 234 234 234 235 236 233 232 232 233 233 233 233 234 233
294 294 293 289 286 284 285 286 287 288 288 287 278 272 268 267 262 256 252 253 259 263 264 262 259 259 259 259 260 260 259 258 252 245 242 245 248 249 249 248 245 244 243 243 242 240 236 230 234 237 238 237 239 238 236 232 232 233 235 236 235 232 231 233 233 232 232 234 232
292 291 289 288 285 282 279 280 284 286 286 281 274 270 268 269 268 264 262 262 261 259 258 258 253 251 251 252 254 256 257 257 257 251 245 244 246 248 249 248 248 246 244 242 241 238 235 229 232 235 237 236 239 238 235 229 229 231 233 236 237 234 231 232 231 231 231 232 232
306 301 297 294 289 282 276 273 271 272 273 274 272 271 272 275 274 274 272 269 264 261 259 257 252 249 247 246 248 250 252 254 256 256 254 250 250 251 252 251 251 250 248 244 241 237 234 230 232 233 234 234 236 236 234 228 228 229 232 235 238 237 235 232 231 230 230 231 232
312 310 310 308 301 293 284 278 270 266 266 270 272 273 275 277 276 274 271 270 274 273 268 260 255 252 249 246 247 248 250 252 254 257 258 257 255 255 255 255 254 254 253 250 244 238 234 231 233 234 234 233 235 237 236 229 228 230 232 235 237 238 238 235 232 231 231 231 231
308 308 309 308 304 300 296 291 284 276 272 273 275 276 276 275 273 270 268 271 275 272 267 262 259 256 254 253 253 253 253 253 255 257 259 260 258 257 256 256 255 255 255 255 250 244 239 236 236 236 236 235 235 237 237 233 231 232 234 236 237 238 239 238 234 233 232 233 233
306 306 305 304 302 301 299 296 293 288 284 280 280 279 277 274 269 266 265 265 263 263 262 260 257 255 256 259 259 260 260 257 256 257 259 260 259 259 258 257 256 256 256 256 253 250 245 242 240 240 240 239 237 237 238 236 233 234 236 238 238 239 240 240 237 234 233 233 234
304 304 305 305 304 303 301 298 295 292 289 286 283 282 280 277 271 267 263 259 259 261 264 263 257 254 255 258 260 261 262 261 259 259 260 261 261 261 260 259 257 256 257 257 254 251 248 246 243 242 242 242 241 239 238 237 235 236 237 239 239 240 240 241 239 237 235 234 235
303 303 303 304 304 304 301 299 296 293 290 288 285 283 282 282 278 273 267 263 264 267 270 272 268 263 259 259 261 261 261 263 263 263 263 263 263 263 262 261 259 258 258 258 255 252 249 248 245 244 244 245 244 243 241 239 238 238 238 240 240 241 241 242 240 238 236 235 236
304 303 302 303 303 302 299 296 294 291 289 288 286 285 285 286 284 281 277 272 271 272 274 276 276 273 269 264 263 263 263 265 266 267 267 267 266 265 264 264 262 261 260 260 258 254 250 249 248 247 246 247 247 247 245 243 242 242 241 241 242 242 243 243 241 238 236 235 236
305 304 304 304 303 301 299 295 292 290 289 288 288 289 290 290 289 288 286 282 280 279 279 278 278 279 277 272 267 266 266 267 266 267 268 269 269 267 266 265 264 263 262 262 261 258 254 251 250 249 249 249 250 251 250 249 247 246 245 244 244 244 244 244 242 239 236 234 235
306 305 305 304 302 300 298 295 294 292 291 291 292 292 292 291 292 291 290 287 287 287 285 282 282 282 283 281 277 274 273 273 271 269 269 270 269 269 268 267 266 265 263 262 261 259 257 254 252 250 249 250 251 251 251 250 249 248 247 246 245 245 245 245 242 240 238 236 236
306 305 304 304 302 299 297 295 295 294 293 293 293 293 293 292 292 292 291 289 288 287 286 285 284 283 283 283 281 279 277 276 275 273 271 271 271 270 270 269 268 266 264 262 260 259 258 257 254 252 250 249 249 250 250 249 249 249 248 247 247 246 246 245 243 241 239 238 238
303 303 303 301 299 298 296 296 295 295 294 294 294 294 293 293 292 291 291 290 287 285 284 284 284 283 281 280 280 279 277 275 275 274 273 271 271 271 270 270 268 266 264 262 260 259 259 258 256 254 253 251 251 251 250 250 250 250 249 248 248 247 247 246 244 242 241 240 240
298 298 298 297 297 296 295 295 295 294 294 294 294 294 293 292 291 289 288 288 287 285 284 283 284 284 283 281 280 279 277 275 275 274 274 273 272 271 270 269 269 267 264 262 261 260 259 259 257 256 254 253 253 253 252 252 252 251 251 250 249 248 247 246 244 243 242 241 241
295 294 294 294 294 294 293 293 293 293 293 293 293 292 291 291 290 288 286 285 287 286 285 283 283 283 282 282 281 280 278 278 276 276 275 275 273 271 269 269 269 268 266 262 261 260 260 259 258 256 255 255 254 253 253 254 254 253 252 252 251 249 248 246 244 243 242 242 242
294 293 294 294 294 293 293 293 293 294 293 293 292 291 291 290 289 287 286 287 287 287 286 284 283 282 282 281 281 280 280 281 278 277 276 276 274 272 270 268 268 268 267 265 263 262 261 260 258 257 256 256 255 254 254 254 255 255 255 254 253 251 249 246 245 243 242 242 242
295 296 297 296 295 294 295 295 295 295 294 294 293 293 292 292 291 290 290 290 290 288 287 286 284 283 282 281 280 281 281 282 280 278 277 275 275 274 272 269 268 267 267 266 264 263 262 262 260 258 256 255 256 255 255 254 255 255 256 255 254 253 250 247 245 243 242 242 241
298 299 300 300 299 298 297 297 297 296 296 295 295 295 295 294 294 294 293 293 291 289 288 287 286 285 284 283 281 280 279 280 280 280 278 276 275 274 273 272 268 265 264 264 262 261 261 261 259 257 255 253 253 253 253 252 252 252 253 254 254 253 251 248 244 242 241 241 240
301 302 302 301 300 299 299 299 298 298 297 297 296 296 296 295 295 295 295 294 292 291 289 288 287 287 286 285 282 279 277 276 277 279 280 280 278 277 275 274 271 267 264 262 264 266 266 266 265 261 257 252 251 251 250 248 248 247 248 249 250 251 251 249 245 242 240 239 238
304 304 303 301 301 300 300 299 298 298 297 297 298 297 297 296 296 296 295 294 293 292 291 290 289 289 288 286 284 282 280 278 278 279 280 282 282 281 280 278 275 272 268 266 269 271 273 273 273 272 269 263 259 256 254 251 248 246 245 246 246 247 248 248 246 243 239 238 236
304 304 302 302 302 301 300 299 299 299 299 299 299 298 297 297 297 296 295 294 293 292 291 290 289 289 289 287 286 284 283 282 281 281 281 282 283 283 282 281 279 276 272 272 274 276 278 279 279 278 277 274 269 266 263 262 256 252 248 246 245 244 244 244 244 243 241 239 236
303 302 302 302 302 301 300 301 301 301 300 300 299 298 297 297 297 296 294 293 293 293 293 292 290 289 289 288 287 286 285 285 285 285 284 283 282 282 282 282 281 279 277 277 279 281 282 282 283 282 282 280 277 271 267 266 264 261 256 251 247 243 241 240 241 241 241 240 238
299 300 301 302 301 301 302 303 302 301 301 300 299 298 297 297 296 295 294 293 293 293 293 293 293 292 291 290 290 290 289 288 288 287 287 286 284 283 283 283 282 281 281 282 284 284 285 285 285 284 283 282 280 276 271 268 266 264 262 259 254 248 242 238 238 238 238 239 238
298 299 300 300 300 301 302 302 301 300 300 300 299 298 298 297 296 295 295 294 293 292 292 292 293 293 292 290 291 291 291 290 289 288 288 287 286 285 284 284 283 283 283 285 285 286 286 285 285 284 283 283 280 277 272 268 267 266 266 265 264 261 257 250 244 240 238 237 237
296 297 298 299 300 300 301 301 300 300 300 300 299 298 297 297 296 295 294 294 293 292 292 292 291 290 289 290 290 290 290 290 290 289 288 286 286 286 286 286 285 284 284 285 286 286 286 286 285 285 284 283 282 278 272 268 268 269 269 270 270 269 267 264 256 247 241 237 237
295 295 296 298 299 299 300 300 301 300 300 300 299 298 297 295 294 293 293 293 293 294 294 294 292 291 291 291 291 290 290 290 290 289 288 287 287 287 287 287 286 285 285 286 286 286 287 287 287 287 286 285 283 280 275 273 273 273 273 273 273 271 270 267 263 256 247 239 236
294 295 296 297 298 299 300 301 301 301 301 301 299 298 297 296 295 294 294 293 294 294 294 293 293 292 293 293 293 292 291 290 290 289 289 288 288 288 288 288 287 286 286 287 287 288 288 289 289 288 287 286 284 281 279 278 277 275 274 274 274 273 271 268 265 261 255 246 240
295 296 297 298 299 301 302 303 303 303 303 302 300 298 297 297 297 297 296 296 295 293 292 291 290 290 290 290 291 291 291 291 291 291 290 290 289 288 287 287 286 286 286 287 288 288 289 289 289 288 287 286 284 283 281 281 278 276 274 274 276 275 273 269 266 264 261 257 250
296 298 300 300 301 303 304 305 305 305 304 302 301 300 299 297 296 296 296 297 296 294 292 290 289 288 288 288 288 289 290 291 292 291 291 290 289 288 287 285 284 284 285 287 288 289 289 290 289 289 288 287 285 284 283 281 278 275 275 276 277 276 273 268 266 264 264 262 259
298 300 302 303 303 304 305 306 306 305 304 302 302 301 301 299 297 296 296 297 296 294 293 292 292 291 291 291 290 290 290 291 292 292 291 290 289 288 286 285 284 284 285 286 288 289 290 291 290 290 289 288 287 285 283 280 277 275 275 276 277 276 272 268 266 265 264 264 262
300 301 303 304 304 305 305 305 306 305 304 302 302 301 301 301 299 298 298 298 297 295 294 295 295 295 295 294 293 292 291 291 291 291 290 289 288 287 286 286 285 285 286 288 290 291 292 293 293 293 293 292 290 287 284 280 277 276 276 277 276 274 272 270 268 267 266 264 263
302 303 303 303 304 304 304 305 304 304 303 302 301 301 300 300 300 299 299 300 298 297 297 298 298 297 297 296 294 292 291 289 289 289 288 288 287 287 287 287 287 287 288 291 293 295 296 297 297 297 296 294 291 288 284 279 277 277 278 278 276 273 271 271 271 270 268 265 266
304 303 303 302 302 302 303 303 302 302 302 302 302 302 301 301 300 300 300 300 298 298 299 299 298 298 297 297 295 293 292 290 288 288 288 288 288 288 289 290 291 291 293 295 297 298 298 299 298 297 296 293 290 286 282 278 277 278 278 276 276 274 273 271 271 271 271 268 269
303 302 301 300 300 301 301 302 301 301 301 301 301 302 302 301 300 301 301 301 300 299 298 298 297 297 296 296 295 294 293 291 290 289 289 289 290 291 293 293 294 294 295 296 297 297 297 297 296 295 294 291 287 282 278 275 277 278 278 276 276 277 276 274 272 272 272 271 271
302 302 301 299 299 299 300 301 301 301 301 300 300 300 300 301 301 302 303 303 301 300 299 297 296 296 295 295 294 294 294 293 293 292 293 293 294 295 296 296 295 294 294 294 294 294 294 294 294 293 293 290 286 281 277 276 278 280 280 279 278 277 277 277 275 274 272 271 269